| time (UTC) | temp C | wind direction | speed KPH | gust KPH | rain 1hr cm | rain 24hr cm | rain mn cm | humidity % | barometer mb |
| 20260503005510 | 26 | 290 | 1.6 | 4.8 | 0.00 | 0.00 | 0.00 | 13 | 1011.5 |
| 20260503005008 | 26 | 288 | 0.0 | 3.2 | 0.00 | 0.00 | 0.00 | 15 | 1011.4 |
| 20260503004510 | 26 | 288 | 0.0 | 3.2 | 0.00 | 0.00 | 0.00 | 15 | 1011.5 |
| 20260503004011 | 26 | 288 | 1.6 | 4.8 | 0.00 | 0.00 | 0.00 | 14 | 1011.5 |
| 20260503003511 | 26 | 298 | 1.6 | 4.8 | 0.00 | 0.00 | 0.00 | 14 | 1011.5 |
| 20260503003007 | 26 | 303 | 0.0 | 3.2 | 0.00 | 0.00 | 0.00 | 15 | 1011.5 |
| 20260503002506 | 26 | 319 | 0.0 | 3.2 | 0.00 | 0.00 | 0.00 | 15 | 1011.6 |
| 20260503002007 | 26 | 314 | 0.0 | 1.6 | 0.00 | 0.00 | 0.00 | 14 | 1011.7 |
| 20260503001506 | 26 | 314 | 0.0 | 1.6 | 0.00 | 0.00 | 0.00 | 13 | 1011.7 |
| 20260503001004 | 26 | 314 | 0.0 | 3.2 | 0.00 | 0.00 | 0.00 | 14 | 1011.7 |
| 20260503000505 | 26 | 314 | 0.0 | 3.2 | 0.00 | 0.00 | 0.00 | 14 | 1011.7 |
| 20260503000005 | 26 | 316 | 0.0 | 6.4 | 0.00 | 0.00 | 0.00 | 13 | 1011.7 |
| 20260502235504 | 26 | 313 | 0.0 | 6.4 | 0.00 | 0.00 | 0.00 | 12 | 1011.8 |
| 20260502235004 | 27 | 291 | 3.2 | 4.8 | 0.00 | 0.00 | 0.00 | 12 | 1011.7 |
| 20260502234503 | 27 | 117 | 0.0 | 3.2 | 0.00 | 0.00 | 0.00 | 12 | 1011.8 |
| 20260502234004 | 27 | 109 | 1.6 | 6.4 | 0.00 | 0.00 | 0.00 | 11 | 1011.8 |
| 20260502233503 | 27 | 280 | 0.0 | 6.4 | 0.00 | 0.00 | 0.00 | 12 | 1011.9 |
| 20260502233002 | 27 | 125 | 0.0 | 6.4 | 0.00 | 0.00 | 0.00 | 13 | 1011.9 |
| 20260502232504 | 27 | 33 | 0.0 | 3.2 | 0.00 | 0.00 | 0.00 | 12 | 1012.0 |
| 20260502232001 | 27 | 129 | 0.0 | 4.8 | 0.00 | 0.00 | 0.00 | 11 | 1012.0 |
| 20260502231601 | 26 | 126 | 0.0 | 4.8 | 0.00 | 0.00 | 0.00 | 11 | 1012.0 |
| 20260502231100 | 26 | 82 | 0.0 | 4.8 | 0.00 | 0.00 | 0.00 | 13 | 1012.0 |
| 20260502230600 | 27 | 61 | 0.0 | 3.2 | 0.00 | 0.00 | 0.00 | 12 | 1012.1 |
| 20260502230059 | 26 | 120 | 0.0 | 3.2 | 0.00 | 0.00 | 0.00 | 13 | 1012.1 |
| 20260502225557 | 26 | 126 | 1.6 | 4.8 | 0.00 | 0.00 | 0.00 | 13 | 1012.2 |
| 20260502225057 | 26 | 115 | 1.6 | 4.8 | 0.00 | 0.00 | 0.00 | 13 | 1012.3 |
| 20260502224603 | 27 | 111 | 0.0 | 6.4 | 0.00 | 0.00 | 0.00 | 12 | 1012.3 |
| 20260502224055 | 27 | 105 | 3.2 | 6.4 | 0.00 | 0.00 | 0.00 | 12 | 1012.4 |
| 20260502223554 | 27 | 112 | 0.0 | 4.8 | 0.00 | 0.00 | 0.00 | 13 | 1012.4 |
| 20260502223053 | 27 | 49 | 1.6 | 4.8 | 0.00 | 0.00 | 0.00 | 13 | 1012.6 |
| 20260502222553 | 27 | 118 | 1.6 | 6.4 | 0.00 | 0.00 | 0.00 | 13 | 1012.7 |
| 20260502222052 | 27 | 100 | 3.2 | 6.4 | 0.00 | 0.00 | 0.00 | 15 | 1012.7 |
| 20260502221552 | 27 | 117 | 0.0 | 8.0 | 0.00 | 0.00 | 0.00 | 15 | 1012.8 |
| 20260502221051 | 27 | 137 | 3.2 | 9.7 | 0.00 | 0.00 | 0.00 | 15 | 1012.8 |
| 20260502220550 | 27 | 37 | 1.6 | 9.7 | 0.00 | 0.00 | 0.00 | 16 | 1012.9 |
| 20260502220050 | 27 | 27 | 1.6 | 8.0 | 0.00 | 0.00 | 0.00 | 14 | 1012.9 |
| 20260502215549 | 27 | 131 | 1.6 | 11.3 | 0.00 | 0.00 | 0.00 | 14 | 1013.0 |
| 20260502215048 | 27 | 124 | 3.2 | 11.3 | 0.00 | 0.00 | 0.00 | 14 | 1013.0 |
| 20260502214548 | 27 | 106 | 3.2 | 6.4 | 0.00 | 0.00 | 0.00 | 15 | 1013.2 |
| 20260502214046 | 27 | 91 | 1.6 | 8.0 | 0.00 | 0.00 | 0.00 | 15 | 1013.3 |
| 20260502213545 | 27 | 117 | 3.2 | 8.0 | 0.00 | 0.00 | 0.00 | 16 | 1013.3 |
| 20260502213047 | 27 | 125 | 4.8 | 8.0 | 0.00 | 0.00 | 0.00 | 17 | 1013.4 |
| 20260502212545 | 27 | 41 | 1.6 | 6.4 | 0.00 | 0.00 | 0.00 | 17 | 1013.5 |
| 20260502212044 | 26 | 128 | 3.2 | 9.7 | 0.00 | 0.00 | 0.00 | 18 | 1013.6 |
| 20260502211544 | 26 | 139 | 4.8 | 9.7 | 0.00 | 0.00 | 0.00 | 17 | 1013.6 |
| 20260502211047 | 26 | 110 | 1.6 | 6.4 | 0.00 | 0.00 | 0.00 | 17 | 1013.7 |
| 20260502210544 | 27 | 103 | 1.6 | 6.4 | 0.00 | 0.00 | 0.00 | 16 | 1013.6 |
| 20260502210056 | 27 | 117 | 3.2 | 6.4 | 0.00 | 0.00 | 0.00 | 17 | 1013.7 |
| 20260502205542 | 27 | 269 | 0.0 | 3.2 | 0.00 | 0.00 | 0.00 | 15 | 1013.8 |
| 20260502205042 | 27 | 276 | 1.6 | 6.4 | 0.00 | 0.00 | 0.00 | 14 | 1013.8 |
| 20260502204546 | 27 | 120 | 1.6 | 9.7 | 0.00 | 0.00 | 0.00 | 14 | 1014.0 |
| 20260502204040 | 27 | 143 | 3.2 | 9.7 | 0.00 | 0.00 | 0.00 | 14 | 1013.9 |
| 20260502203538 | 26 | 89 | 3.2 | 9.7 | 0.00 | 0.00 | 0.00 | 15 | 1014.1 |
| 20260502203038 | 26 | 106 | 4.8 | 11.3 | 0.00 | 0.00 | 0.00 | 16 | 1014.1 |
| 20260502202537 | 26 | 108 | 3.2 | 11.3 | 0.00 | 0.00 | 0.00 | 15 | 1014.2 |
| 20260502202037 | 27 | 72 | 3.2 | 8.0 | 0.00 | 0.00 | 0.00 | 16 | 1014.2 |
| 20260502201545 | 26 | 108 | 3.2 | 8.0 | 0.00 | 0.00 | 0.00 | 16 | 1014.3 |
| 20260502201035 | 26 | 112 | 4.8 | 9.7 | 0.00 | 0.00 | 0.00 | 18 | 1014.3 |
| 20260502200535 | 26 | 41 | 3.2 | 9.7 | 0.00 | 0.00 | 0.00 | 17 | 1014.4 |
| 20260502200033 | 26 | 108 | 1.6 | 9.7 | 0.00 | 0.00 | 0.00 | 16 | 1014.4 |
| 20260502195532 | 26 | 101 | 4.8 | 9.7 | 0.00 | 0.00 | 0.00 | 18 | 1014.4 |
| 20260502195030 | 26 | 94 | 1.6 | 9.7 | 0.00 | 0.00 | 0.00 | 18 | 1014.5 |
| 20260502194530 | 26 | 110 | 3.2 | 9.7 | 0.00 | 0.00 | 0.00 | 18 | 1014.6 |
| 20260502194029 | 26 | 72 | 3.2 | 8.0 | 0.00 | 0.00 | 0.00 | 21 | 1014.6 |
| 20260502193527 | 25 | 135 | 1.6 | 6.4 | 0.00 | 0.00 | 0.00 | 22 | 1014.7 |
| 20260502193026 | 25 | 115 | 1.6 | 6.4 | 0.00 | 0.00 | 0.00 | 23 | 1014.8 |
| 20260502192525 | 25 | 109 | 3.2 | 6.4 | 0.00 | 0.00 | 0.00 | 23 | 1014.9 |
| 20260502192023 | 24 | 135 | 0.0 | 4.8 | 0.00 | 0.00 | 0.00 | 24 | 1015.0 |
| 20260502191522 | 23 | 130 | 0.0 | 6.4 | 0.00 | 0.00 | 0.00 | 28 | 1015.0 |
| 20260502191020 | 23 | 96 | 1.6 | 6.4 | 0.00 | 0.00 | 0.00 | 27 | 1015.2 |
| 20260502190519 | 23 | 115 | 0.0 | 3.2 | 0.00 | 0.00 | 0.00 | 28 | 1015.2 |
| 20260502190017 | 23 | 131 | 0.0 | 4.8 | 0.00 | 0.00 | 0.00 | 29 | 1015.3 |
| 20260502185517 | 23 | 303 | 1.6 | 4.8 | 0.00 | 0.00 | 0.00 | 28 | 1015.4 |
| 20260502185016 | 22 | 159 | 0.0 | 4.8 | 0.00 | 0.00 | 0.00 | 30 | 1015.5 |
| 20260502184525 | 22 | 130 | 1.6 | 4.8 | 0.00 | 0.00 | 0.00 | 30 | 1015.6 |
| 20260502184012 | 21 | 124 | 1.6 | 6.4 | 0.00 | 0.00 | 0.00 | 32 | 1015.6 |
| 20260502183512 | 21 | 304 | 1.6 | 6.4 | 0.00 | 0.00 | 0.00 | 32 | 1015.7 |
| 20260502183025 | 21 | 283 | 1.6 | 4.8 | 0.00 | 0.00 | 0.00 | 33 | 1015.8 |
| 20260502182509 | 20 | 280 | 0.0 | 6.4 | 0.00 | 0.00 | 0.00 | 33 | 1015.9 |
| 20260502182006 | 20 | 291 | 1.6 | 6.4 | 0.00 | 0.00 | 0.00 | 34 | 1015.9 |
| 20260502181505 | 20 | 290 | 3.2 | 6.4 | 0.00 | 0.00 | 0.00 | 35 | 1016.0 |
| 20260502181004 | 20 | 295 | 1.6 | 6.4 | 0.00 | 0.00 | 0.00 | 36 | 1016.1 |
| 20260502180503 | 19 | 280 | 1.6 | 6.4 | 0.00 | 0.00 | 0.00 | 36 | 1016.1 |
| 20260502164044 | 16 | 275 | 1.6 | 4.8 | 0.00 | 0.00 | 0.00 | 45 | 1016.6 |
| 20260502163543 | 16 | 283 | 1.6 | 6.4 | 0.00 | 0.00 | 0.00 | 45 | 1016.6 |
| 20260502163052 | 15 | 300 | 1.6 | 6.4 | 0.00 | 0.00 | 0.00 | 46 | 1016.7 |
| 20260502162540 | 15 | 300 | 1.6 | 6.4 | 0.00 | 0.00 | 0.00 | 48 | 1016.7 |
| 20260502162038 | 15 | 291 | 3.2 | 12.9 | 0.00 | 0.00 | 0.00 | 49 | 1016.9 |
| 20260502161538 | 14 | 297 | 3.2 | 12.9 | 0.00 | 0.00 | 0.00 | 51 | 1016.9 |
| 20260502161038 | 14 | 307 | 3.2 | 11.3 | 0.00 | 0.00 | 0.00 | 53 | 1016.9 |
| 20260502160537 | 13 | 297 | 3.2 | 9.7 | 0.00 | 0.00 | 0.00 | 53 | 1016.9 |
| 20260502152025 | 12 | 298 | 0.0 | 3.2 | 0.00 | 0.00 | 0.00 | 58 | 1016.7 |
| 20260502151525 | 11 | 240 | 0.0 | 1.6 | 0.00 | 0.00 | 0.00 | 59 | 1016.7 |
| 20260502151026 | 11 | 231 | 0.0 | 1.6 | 0.00 | 0.00 | 0.00 | 59 | 1016.6 |
| 20260502150525 | 11 | 222 | 0.0 | 1.6 | 0.00 | 0.00 | 0.00 | 59 | 1016.7 |
| 20260502130515 | 10 | 209 | 0.0 | 0.0 | 0.00 | 0.00 | 0.00 | 57 | 1015.8 |
| 20260502123513 | 11 | 251 | 0.0 | 1.6 | 0.00 | 0.00 | 0.00 | 52 | 1015.6 |
| 20260502123021 | 11 | 252 | 0.0 | 1.6 | 0.00 | 0.00 | 0.00 | 51 | 1015.7 |
| 20260502122513 | 11 | 251 | 0.0 | 1.6 | 0.00 | 0.00 | 0.00 | 52 | 1015.8 |
| 20260502122013 | 11 | 251 | 0.0 | 1.6 | 0.00 | 0.00 | 0.00 | 51 | 1015.7 |
| 20260502121515 | 11 | 273 | 0.0 | 3.2 | 0.00 | 0.00 | 0.00 | 50 | 1015.7 |
| 20260502121014 | 11 | 273 | 0.0 | 3.2 | 0.00 | 0.00 | 0.00 | 49 | 1015.7 |
| 20260502120512 | 11 | 273 | 0.0 | 1.6 | 0.00 | 0.00 | 0.00 | 50 | 1015.7 |
| 20260502115511 | 11 | 273 | 0.0 | 1.6 | 0.00 | 0.00 | 0.00 | 49 | 1015.8 |
| 20260502115012 | 11 | 273 | 0.0 | 3.2 | 0.00 | 0.00 | 0.00 | 49 | 1015.8 |
| 20260502114511 | 11 | 273 | 0.0 | 3.2 | 0.00 | 0.00 | 0.00 | 49 | 1015.8 |
| 20260502114010 | 11 | 273 | 0.0 | 3.2 | 0.00 | 0.00 | 0.00 | 50 | 1015.9 |
| 20260502113512 | 11 | 273 | 0.0 | 3.2 | 0.00 | 0.00 | 0.00 | 50 | 1015.9 |
| 20260502113010 | 11 | 246 | 0.0 | 3.2 | 0.00 | 0.00 | 0.00 | 50 | 1015.9 |
| 20260502112510 | 11 | 245 | 0.0 | 1.6 | 0.00 | 0.00 | 0.00 | 50 | 1016.0 |
| 20260502112008 | 11 | 249 | 0.0 | 1.6 | 0.00 | 0.00 | 0.00 | 49 | 1016.0 |
| 20260502111516 | 11 | 291 | 0.0 | 3.2 | 0.00 | 0.00 | 0.00 | 49 | 1015.9 |
| 20260502111008 | 11 | 291 | 0.0 | 3.2 | 0.00 | 0.00 | 0.00 | 49 | 1016.0 |
| 20260502110508 | 11 | 291 | 0.0 | 3.2 | 0.00 | 0.00 | 0.00 | 49 | 1016.0 |
| 20260502110012 | 11 | 291 | 0.0 | 3.2 | 0.00 | 0.00 | 0.00 | 49 | 1016.1 |
| 20260502105510 | 11 | 291 | 0.0 | 3.2 | 0.00 | 0.00 | 0.00 | 49 | 1016.0 |
| 20260502105008 | 11 | 291 | 0.0 | 1.6 | 0.00 | 0.00 | 0.00 | 49 | 1016.0 |
| 20260502104507 | 11 | 292 | 0.0 | 0.0 | 0.00 | 0.00 | 0.00 | 49 | 1016.0 |
| 20260502104006 | 11 | 291 | 0.0 | 0.0 | 0.00 | 0.00 | 0.00 | 48 | 1016.0 |
| 20260502103504 | 12 | 291 | 0.0 | 1.6 | 0.00 | 0.00 | 0.00 | 48 | 1016.1 |
| 20260502103004 | 12 | 291 | 0.0 | 3.2 | 0.00 | 0.00 | 0.00 | 48 | 1016.1 |
| 20260502102504 | 12 | 291 | 0.0 | 3.2 | 0.00 | 0.00 | 0.00 | 48 | 1016.1 |
| 20260502102004 | 12 | 291 | 0.0 | 1.6 | 0.00 | 0.00 | 0.00 | 48 | 1016.1 |
| 20260502101503 | 12 | 291 | 0.0 | 1.6 | 0.00 | 0.00 | 0.00 | 47 | 1016.1 |
| 20260502101002 | 12 | 291 | 0.0 | 1.6 | 0.00 | 0.00 | 0.00 | 47 | 1016.2 |
| 20260502100505 | 12 | 291 | 0.0 | 3.2 | 0.00 | 0.00 | 0.00 | 47 | 1016.1 |
| 20260502091057 | 12 | 355 | 0.0 | 0.0 | 0.00 | 0.00 | 0.00 | 47 | 1016.0 |
| 20260502090557 | 12 | 356 | 0.0 | 0.0 | 0.00 | 0.00 | 0.00 | 47 | 1016.0 |
| 20260502090113 | 12 | 356 | 0.0 | 0.0 | 0.00 | 0.00 | 0.00 | 47 | 1016.1 |
| 20260502071040 | 11 | 98 | 0.0 | 1.6 | 0.00 | 0.00 | 0.00 | 52 | 1016.3 |
| 20260502070539 | 11 | 98 | 0.0 | 0.0 | 0.00 | 0.00 | 0.00 | 56 | 1016.3 |
| 20260502070037 | 11 | 98 | 0.0 | 1.6 | 0.00 | 0.00 | 0.00 | 57 | 1016.4 |
| 20260502065537 | 11 | 99 | 0.0 | 1.6 | 0.00 | 0.00 | 0.00 | 57 | 1016.4 |
| 20260502065035 | 11 | 99 | 0.0 | 1.6 | 0.00 | 0.00 | 0.00 | 56 | 1016.4 |
| 20260502064535 | 11 | 98 | 0.0 | 1.6 | 0.00 | 0.00 | 0.00 | 56 | 1016.3 |
| 20260502064033 | 11 | 75 | 0.0 | 0.0 | 0.00 | 0.00 | 0.00 | 58 | 1016.3 |
| 20260502063537 | 10 | 75 | 0.0 | 1.6 | 0.00 | 0.00 | 0.00 | 60 | 1016.3 |
| 20260502063032 | 10 | 75 | 0.0 | 1.6 | 0.00 | 0.00 | 0.00 | 60 | 1016.3 |
| 20260502062531 | 10 | 75 | 0.0 | 1.6 | 0.00 | 0.00 | 0.00 | 61 | 1016.3 |
| 20260502062030 | 10 | 75 | 0.0 | 1.6 | 0.00 | 0.00 | 0.00 | 61 | 1016.3 |
| 20260502061529 | 11 | 75 | 0.0 | 1.6 | 0.00 | 0.00 | 0.00 | 62 | 1016.3 |
| 20260502061028 | 11 | 75 | 0.0 | 1.6 | 0.00 | 0.00 | 0.00 | 61 | 1016.2 |
| 20260502060525 | 11 | 75 | 0.0 | 1.6 | 0.00 | 0.00 | 0.00 | 60 | 1016.2 |
| 20260502060024 | 11 | 75 | 0.0 | 1.6 | 0.00 | 0.00 | 0.00 | 60 | 1016.2 |
| 20260502055524 | 11 | 75 | 0.0 | 1.6 | 0.00 | 0.00 | 0.00 | 60 | 1016.2 |
| 20260502055026 | 11 | 75 | 0.0 | 1.6 | 0.00 | 0.00 | 0.00 | 59 | 1016.3 |
| 20260502054523 | 11 | 75 | 0.0 | 1.6 | 0.00 | 0.00 | 0.00 | 58 | 1016.3 |
| 20260502054022 | 12 | 75 | 0.0 | 1.6 | 0.00 | 0.00 | 0.00 | 57 | 1016.3 |
| 20260502053522 | 12 | 75 | 0.0 | 1.6 | 0.00 | 0.00 | 0.00 | 55 | 1016.3 |
| 20260502053022 | 12 | 75 | 0.0 | 0.0 | 0.00 | 0.00 | 0.00 | 54 | 1016.3 |
| 20260502052522 | 12 | 75 | 0.0 | 1.6 | 0.00 | 0.00 | 0.00 | 52 | 1016.3 |
| 20260502052022 | 12 | 75 | 0.0 | 1.6 | 0.00 | 0.00 | 0.00 | 52 | 1016.3 |
| 20260502051528 | 12 | 75 | 0.0 | 1.6 | 0.00 | 0.00 | 0.00 | 52 | 1016.4 |
| 20260502051021 | 12 | 75 | 0.0 | 1.6 | 0.00 | 0.00 | 0.00 | 52 | 1016.4 |
| 20260502050526 | 12 | 75 | 0.0 | 1.6 | 0.00 | 0.00 | 0.00 | 52 | 1016.4 |
| 20260502050035 | 12 | 75 | 0.0 | 1.6 | 0.00 | 0.00 | 0.00 | 52 | 1016.4 |
| 20260502045521 | 12 | 75 | 0.0 | 0.0 | 0.00 | 0.00 | 0.00 | 52 | 1016.5 |
| 20260502045027 | 12 | 75 | 0.0 | 1.6 | 0.00 | 0.00 | 0.00 | 51 | 1016.5 |
| 20260502044522 | 12 | 75 | 0.0 | 1.6 | 0.00 | 0.00 | 0.00 | 52 | 1016.5 |
| 20260502044026 | 13 | 75 | 0.0 | 1.6 | 0.00 | 0.00 | 0.00 | 52 | 1016.5 |
| 20260502043522 | 13 | 75 | 0.0 | 0.0 | 0.00 | 0.00 | 0.00 | 50 | 1016.5 |
| 20260502043020 | 13 | 75 | 0.0 | 0.0 | 0.00 | 0.00 | 0.00 | 48 | 1016.6 |
| 20260502042520 | 13 | 75 | 0.0 | 0.0 | 0.00 | 0.00 | 0.00 | 49 | 1016.5 |
| 20260502042023 | 14 | 75 | 0.0 | 0.0 | 0.00 | 0.00 | 0.00 | 46 | 1016.5 |
| 20260502041519 | 14 | 75 | 0.0 | 0.0 | 0.00 | 0.00 | 0.00 | 45 | 1016.5 |
| 20260502041020 | 14 | 75 | 0.0 | 1.6 | 0.00 | 0.00 | 0.00 | 45 | 1016.4 |
| 20260502040519 | 14 | 75 | 0.0 | 1.6 | 0.00 | 0.00 | 0.00 | 44 | 1016.4 |
| 20260502040019 | 14 | 75 | 0.0 | 1.6 | 0.00 | 0.00 | 0.00 | 45 | 1016.4 |
| 20260502035519 | 15 | 75 | 0.0 | 1.6 | 0.00 | 0.00 | 0.00 | 43 | 1016.3 |
| 20260502035019 | 15 | 75 | 0.0 | 1.6 | 0.00 | 0.00 | 0.00 | 42 | 1016.2 |
| 20260502034519 | 15 | 70 | 0.0 | 1.6 | 0.00 | 0.00 | 0.00 | 42 | 1016.2 |
| 20260502034019 | 15 | 61 | 0.0 | 1.6 | 0.00 | 0.00 | 0.00 | 42 | 1016.1 |
| 20260502033517 | 16 | 58 | 0.0 | 1.6 | 0.00 | 0.00 | 0.00 | 40 | 1016.1 |
| 20260502033022 | 16 | 58 | 0.0 | 1.6 | 0.00 | 0.00 | 0.00 | 40 | 1016.0 |
| 20260502032520 | 16 | 58 | 0.0 | 1.6 | 0.00 | 0.00 | 0.00 | 38 | 1016.0 |
| 20260502032017 | 16 | 58 | 0.0 | 1.6 | 0.00 | 0.00 | 0.00 | 38 | 1015.9 |
| 20260502031517 | 17 | 114 | 0.0 | 4.8 | 0.00 | 0.00 | 0.00 | 37 | 1015.8 |
| 20260502031017 | 17 | 127 | 1.6 | 4.8 | 0.00 | 0.00 | 0.00 | 35 | 1015.7 |
| 20260502030516 | 17 | 86 | 1.6 | 3.2 | 0.00 | 0.00 | 0.00 | 36 | 1015.7 |
| 20260502030017 | 17 | 105 | 1.6 | 3.2 | 0.00 | 0.00 | 0.00 | 35 | 1015.6 |
| 20260502025516 | 17 | 91 | 0.0 | 1.6 | 0.00 | 0.00 | 0.00 | 35 | 1015.6 |
| 20260502025018 | 18 | 91 | 0.0 | 1.6 | 0.00 | 0.00 | 0.00 | 33 | 1015.6 |
| 20260502024517 | 18 | 91 | 0.0 | 1.6 | 0.00 | 0.00 | 0.00 | 33 | 1015.5 |
| 20260502024016 | 19 | 89 | 0.0 | 1.6 | 0.00 | 0.00 | 0.00 | 33 | 1015.5 |
| 20260502023516 | 20 | 89 | 0.0 | 1.6 | 0.00 | 0.00 | 0.00 | 30 | 1015.5 |
| 20260502023116 | 20 | 89 | 0.0 | 1.6 | 0.00 | 0.00 | 0.00 | 28 | 1015.5 |
| 20260502022515 | 20 | 89 | 0.0 | 1.6 | 0.00 | 0.00 | 0.00 | 29 | 1015.5 |
| 20260502022017 | 20 | 89 | 0.0 | 1.6 | 0.00 | 0.00 | 0.00 | 28 | 1015.5 |
| 20260502021518 | 20 | 89 | 0.0 | 1.6 | 0.00 | 0.00 | 0.00 | 27 | 1015.6 |
| 20260502021017 | 21 | 89 | 0.0 | 1.6 | 0.00 | 0.00 | 0.00 | 25 | 1015.6 |
| 20260502020515 | 21 | 89 | 0.0 | 1.6 | 0.00 | 0.00 | 0.00 | 24 | 1015.6 |
| 20260502020014 | 21 | 89 | 0.0 | 1.6 | 0.00 | 0.00 | 0.00 | 24 | 1015.6 |
| 20260502015514 | 21 | 89 | 0.0 | 1.6 | 0.00 | 0.00 | 0.00 | 24 | 1015.6 |
| 20260502015017 | 21 | 89 | 0.0 | 1.6 | 0.00 | 0.00 | 0.00 | 21 | 1015.6 |
| 20260502014524 | 21 | 89 | 0.0 | 1.6 | 0.00 | 0.00 | 0.00 | 18 | 1015.6 |
| 20260502014012 | 22 | 89 | 0.0 | 1.6 | 0.00 | 0.00 | 0.00 | 19 | 1015.6 |
| 20260502013512 | 22 | 89 | 0.0 | 1.6 | 0.00 | 0.00 | 0.00 | 19 | 1015.7 |
| 20260502013012 | 22 | 89 | 0.0 | 1.6 | 0.00 | 0.00 | 0.00 | 17 | 1015.7 |
| 20260502012515 | 22 | 89 | 0.0 | 3.2 | 0.00 | 0.00 | 0.00 | 17 | 1015.7 |
| 20260502012011 | 22 | 89 | 0.0 | 3.2 | 0.00 | 0.00 | 0.00 | 17 | 1015.8 |
| 20260502011511 | 22 | 128 | 0.0 | 3.2 | 0.00 | 0.00 | 0.00 | 17 | 1015.8 |
| 20260502011012 | 22 | 131 | 1.6 | 3.2 | 0.00 | 0.00 | 0.00 | 18 | 1015.8 |
| 20260502010510 | 22 | 64 | 0.0 | 4.8 | 0.00 | 0.00 | 0.00 | 19 | 1015.8 |
| 20260502010010 | 22 | 93 | 0.0 | 4.8 | 0.00 | 0.00 | 0.00 | 19 | 1015.8 |